Showing default

BLACKCAT, 67369

Orbit data source: Space-Track

BLACKCAT, 67369 is a payload satellite owned by PSU (US) in SSO that was launched on Sun, 11 Jan 2026 UTC via an FALCON 9 launch vehicle from the Air Force Western Test Range (AFWTR). Payload-class satellites include a variety of spacecraft equipped with specific instruments for various scientific and technological missions. These include communications satellites like Starlink; space stations such as the ISS; scientific satellites like the Hubble; Earth observation satellites from companies like Planet Labs, Umbra, and HawkEye 360; GPS; miniature CubeSats for education and research; and military/defense satellites.

Loading next visibility...
Identifier
67369, 2026-004G
Orbit
SSO
Country
Flag of USUS
Related business
Manufacturer
NanoAvionics US
Mission
Operational Amateur Astronomy
Bus & Motor
CUBESAT 6U, Unknown motor
Mass
11.4 kg wet, 11.4 kg dry
Launch date (UTC)
2026-01-11 (8 months ago)
Launch vehicle
FALCON 9
Launch site
Air Force Western Test Range (AFWTR)
Object type
Payload
Rocket body
Debris
Shape & HBR
Box + 2 Pan, 0.8 m
Radar Cross Section
0.078 m², Medium (>0.1 m² and < 1m²)

Expand to show TLE details & history
Last TLE update: 14 hours ago

TLE from 14 hours ago
0 BLACKCAT
1 67369U 26004G   26264.26207499  .00000564  00000-0  67621-4 0  9993
2 67369  97.8053 261.1291 0006952 176.1274 183.9997 14.87875759 37576
Epoch: 2026-09-21T06:17Z
TLE epoch observation values (Epoch: 2026-09-21T06:17:23.279Z)
Latitude
-0.00006°
Longitude
166.63768°
Altitude
612.453 km
Speed
7.55 km/s
True Right ascension
17h 24m 30s
True Declination
0° 00' 00"
Sunlit
Object was in daylight at epoch
Visualization orbit readout
Latitude
Unknown
Longitude
Unknown
Altitude
Unknown
Speed
Unknown
Apparent Right ascension
Unknown
Apparent Declination
Unknown
Sunlit
N/A
Visualization observer readout
Local Sidereal Time
13:29:25
Azimuth
Unknown
Elevation
Unknown
Doppler factor
Unknown
Orbital elements
Apogee altitude
606.452 km
Perigee altitude
596.748 km
Semi-major axis
6,979.737 km
Eccentricity
0.0007
Inclination
97.8053°
RAAN
261.1291°
Arg. of periapsis
176.1274°
True anomaly
183.99415°
Mean anomaly
183.9997°
Eccentric anomaly
183.99692°
Mean motion
3.72207 °/min
Orbital period
96.72 mins
BSTAR
0.000067621
Loading maneuver chart data...
Computing Atmospheric mass density...
Loading historical data...
Loading historical data...
Loading historical data...
Loading historical data...
Loading historical data...
Loading historical data...
Loading historical data...

Documentation

Showing up to 5 results
|